GW2685 Weather Reports


time (UTC)temp
C
wind
direction
speed
KPH
gust
KPH
rain 1hr
cm
rain 24hr
cm
rain mn
cm
humidity
%
barometer
mb
20260901161548 1 345 6.4 8.0 0.00 0.43 0.00 89 1006.1
20260901160040 1 18 4.8 9.7 0.00 0.43 0.00 88 1006.1
20260901154535 2 12 8.0 14.5 0.00 0.46 0.00 86 1006.1
20260901153036 1 19 8.0 16.1 0.00 0.46 0.00 87 1006.2
20260901151550 2 312 11.3 19.3 0.00 0.46 0.00 84 1006.1
20260901150038 2 339 11.3 16.1 0.00 0.46 0.00 86 1006.1
20260901144539 2 17 12.9 19.3 0.00 0.66 0.00 84 1006.1
20260901143040 2 325 9.7 16.1 0.00 0.66 0.00 83 1005.9
20260901141543 2 20 14.5 22.5 0.00 0.66 0.00 86 1005.7
20260901140036 2 333 9.7 17.7 0.00 0.66 0.00 86 1005.6
20260901134536 2 30 11.3 19.3 0.00 1.19 0.00 83 1005.6
20260901133044 2 12 12.9 16.1 0.00 1.19 0.00 87 1005.6
20260901131541 1 13 11.3 12.9 0.00 1.19 0.00 88 1005.6
20260901130040 2 19 11.3 14.5 0.00 1.19 0.00 87 1005.7
20260901124537 1 352 9.7 17.7 0.00 1.32 0.00 88 1005.7
20260901123040 2 14 12.9 19.3 0.00 1.32 0.00 86 1005.7
20260901121541 2 345 14.5 19.3 0.00 1.32 0.00 86 1005.6
20260901120037 2 15 6.4 12.9 0.00 1.32 0.00 85 1005.7
20260901114535 2 23 8.0 14.5 0.00 1.32 0.00 86 1005.5
20260901113039 2 333 9.7 12.9 0.00 1.32 0.00 86 1005.5
20260901111541 2 333 8.0 14.5 0.00 1.32 0.00 87 1005.5
20260901110040 2 10 8.0 11.3 0.00 1.32 0.00 88 1005.4
20260901104539 2 21 8.0 11.3 0.00 1.32 0.00 87 1005.4
20260901103035 2 315 4.8 9.7 0.00 1.32 0.00 87 1005.4
20260901101537 2 13 4.8 8.0 0.00 1.32 0.00 90 1005.4
20260901100039 2 18 6.4 19.3 0.00 1.32 0.00 86 1005.4
20260901094539 2 327 9.7 14.5 0.00 1.32 0.00 88 1005.5
20260901093039 2 22 12.9 16.1 0.00 1.32 0.00 89 1005.6
20260901091535 2 352 4.8 6.4 0.00 1.32 0.00 91 1005.4
20260901090038 2 26 8.0 11.3 0.00 1.32 0.00 89 1005.2
20260901084545 3 30 8.0 14.5 0.00 1.32 0.00 87 1005.2
20260901083037 3 336 9.7 17.7 0.00 1.32 0.00 88 1005.1
20260901081536 3 32 6.4 12.9 0.00 1.32 0.00 86 1005.2
20260901080050 2 325 9.7 16.1 0.00 1.32 0.00 88 1005.2
20260901074543 2 355 6.4 9.7 0.00 1.32 1.32 91 1005.2
20260901073046 2 30 8.0 14.5 0.00 1.32 1.32 89 1004.9
20260901071541 2 351 12.9 17.7 0.00 1.32 1.32 90 1004.9
20260901070041 2 28 6.4 8.0 0.00 1.32 1.32 90 1004.9
20260901064539 2 336 8.0 12.9 0.00 1.47 1.32 91 1004.6
20260901063044 2 15 6.4 12.9 0.00 1.47 1.32 90 1004.4
20260901061541 2 5 8.0 11.3 0.00 1.47 1.32 91 1004.4
20260901060043 3 318 6.4 12.9 0.00 1.47 1.32 91 1004.0
20260901054540 3 30 6.4 12.9 0.00 1.60 1.32 88 1003.8
20260901053056 3 24 6.4 12.9 0.00 1.60 1.32 90 1003.8
20260901051538 3 287 6.4 11.3 0.00 1.60 1.32 89 1003.5
20260901050038 4 18 6.4 9.7 0.00 1.60 1.32 87 1003.3
20260901044549 5 324 6.4 14.5 0.00 1.65 1.32 86 1003.3
20260901043042 6 346 4.8 12.9 0.00 1.65 1.32 81 1003.1
20260901041553 6 28 6.4 9.7 0.00 1.65 1.32 82 1003.0
20260901040055 6 34 4.8 9.7 0.00 1.65 1.32 80 1002.8
20260901034541 7 0 0.0 3.2 0.00 1.73 1.32 80 1002.8
20260901033041 7 229 6.4 11.3 0.00 1.73 1.32 77 1002.7
20260901031540 7 200 6.4 14.5 0.00 1.73 1.32 77 1002.5
20260901030042 7 232 8.0 17.7 0.00 1.73 1.32 81 1002.3
20260901024546 7 218 6.4 14.5 0.00 1.73 1.32 83 1002.0
20260901023043 8 205 6.4 14.5 0.00 1.73 1.32 80 1002.1
20260901021541 8 234 6.4 16.1 0.00 1.73 1.32 80 1002.1
20260901020043 8 227 8.0 16.1 0.00 1.73 1.32 80 1001.7
20260901014542 8 196 8.0 17.7 0.00 1.73 1.32 81 1001.8
20260901013039 8 149 6.4 12.9 0.00 1.73 1.32 81 1001.7
20260901011542 8 0 3.2 11.3 0.00 1.73 1.32 82 1001.5
20260901010051 8 155 4.8 9.7 0.00 1.73 1.32 82 1001.5
20260901004539 7 230 4.8 11.3 0.00 1.73 1.32 83 1001.4
20260901003039 7 130 8.0 14.5 0.00 1.73 1.32 84 1001.2
20260901001539 6 190 4.8 12.9 0.00 1.73 1.32 84 1001.1
20260901000040 6 190 6.4 12.9 0.00 1.73 1.32 84 1001.0
20260831234536 7 156 4.8 11.3 0.00 1.73 1.32 82 1000.9
20260831233043 6 225 4.8 14.5 0.00 1.73 1.32 84 1000.7
20260831231538 6 195 6.4 12.9 0.00 1.73 1.32 84 1000.7
20260831230037 5 175 4.8 12.9 0.00 1.73 1.32 87 1000.6
20260831224537 5 211 6.4 12.9 0.00 1.73 1.32 87 1000.6
20260831223035 5 196 6.4 12.9 0.00 1.73 1.32 85 1000.6
20260831221543 5 147 6.4 16.1 0.00 1.73 1.32 87 1000.5
20260831220036 5 223 8.0 12.9 0.00 1.73 1.32 86 1000.5
20260831214542 5 136 4.8 11.3 0.00 1.73 1.32 87 1000.5
20260831213041 4 121 4.8 11.3 0.00 1.73 1.32 89 1000.4
20260831211539 3 231 6.4 11.3 0.00 1.73 1.32 90 1000.5
20260831210037 3 184 6.4 14.5 0.00 1.73 1.32 91 1000.4
20260831204538 3 221 8.0 16.1 0.03 1.73 1.32 91 1000.3
20260831203034 3 205 9.7 19.3 0.03 1.73 1.32 92 1000.3
20260831201535 3 182 9.7 19.3 0.03 1.73 1.32 93 1000.1
20260831200034 3 216 6.4 12.9 0.03 1.73 1.32 93 1000.0
20260831194555 3 224 6.4 11.3 0.00 1.70 1.32 92 999.9
20260831193040 2 149 4.8 8.0 0.03 1.70 1.32 93 999.9
20260831191536 2 133 1.6 3.2 0.05 1.70 1.32 93 1000.0
20260831190050 2 0 0.0 3.2 0.15 1.70 1.32 94 1000.2
20260831184538 2 0 0.0 3.2 0.25 1.70 1.32 94 1000.1
20260831183046 1 210 0.0 3.2 0.25 1.68 1.30 94 1000.0
20260831181538 1 175 1.6 8.0 0.23 1.65 1.27 94 999.9
20260831180044 2 159 3.2 9.7 0.13 1.52 1.14 95 1000.0
20260831174548 2 202 1.6 11.3 0.05 1.45 1.07 96 1000.0
20260831173041 2 126 6.4 16.1 0.03 1.42 1.04 95 999.8
20260831171540 2 210 6.4 17.7 0.08 1.42 1.04 94 999.5
20260831170042 2 137 4.8 12.9 0.10 1.40 1.02 92 999.4
20260831164547 2 309 3.2 12.9 0.10 1.40 1.02 92 999.2
20260831163041 2 32 8.0 16.1 0.13 1.40 1.02 90 999.4